When you browse on this site, cookies collect data to enhance your experience and personalize the content and advertising you see.
Visit our Privacy Policy to learn more. By continuing to use the site, you agree to this use of cookies and data.
  • în România
  • Lista ţărilor
  • Pe 7 zile
  • Temperatura apei
  • Hartă satelitară
  • Meteo pe hartă
  • Widget-uri
  • user-avatar
    Intrare

    Meteo pe oră la Puerto Ayacucho

    Astăzi, 20 Aprilie, Sâmbătă

    Timp Temperatura Precipitaţii Vânt Presiune Umiditate
    00:00 +27°C° 0.4 mm 2 m/s 752 mmHg 87%
    01:00 +27°C° 0.4 mm 2 m/s 752 mmHg 88%
    02:00 +27°C° 0.4 mm 1 m/s 752 mmHg 88%
    03:00 +26°C° 0.4 mm 1 m/s 752 mmHg 88%
    04:00 +24°C° 0.4 mm 0 m/s 751 mmHg 89%
    05:00 +24°C° 0.4 mm 0 m/s 752 mmHg 89%
    06:00 +25°C° 0.4 mm 0 m/s 752 mmHg 90%
    07:00 +25°C° 0.4 mm 0 m/s 753 mmHg 90%
    08:00 +25°C° 1 mm 0 m/s 753 mmHg 90%
    09:00 +25°C° 1 mm 0 m/s 754 mmHg 90%
    10:00 +25°C° 1 mm 0 m/s 754 mmHg 91%
    11:00 +25°C° 0.6 mm 0 m/s 753 mmHg 90%
    12:00 +26°C° 0.6 mm 0 m/s 752 mmHg 89%
    13:00 +26°C° 0.6 mm 0 m/s 752 mmHg 89%
    14:00 +26°C° 0 mm 0 m/s 751 mmHg 86%
    15:00 +27°C° 0 mm 0 m/s 750 mmHg 83%
    16:00 +30°C° 0 mm 1 m/s 750 mmHg 80%
    17:00 +27°C° 0 mm 0 m/s 750 mmHg 83%
    18:00 +26°C° 0 mm 0 m/s 751 mmHg 86%
    19:00 +26°C° 0 mm 0 m/s 751 mmHg 89%
    20:00 +26°C° 0 mm 0 m/s 752 mmHg 88%
    21:00 +26°C° 0 mm 0 m/s 752 mmHg 88%
    22:00 +27°C° 0 mm 1 m/s 753 mmHg 88%
    23:00 +25°C° 0 mm 0 m/s 752 mmHg 88%

    Mâine, 21 Aprilie, Duminică

    Timp Temperatura Precipitaţii Vânt Presiune Umiditate
    00:00 +25°C° 0 mm 0 m/s 752 mmHg 88%
    01:00 +25°C° 0 mm 0 m/s 751 mmHg 87%
    02:00 +25°C° 0.4 mm 0 m/s 751 mmHg 88%
    03:00 +25°C° 0.4 mm 0 m/s 751 mmHg 89%
    04:00 +24°C° 0.4 mm 0 m/s 751 mmHg 90%
    05:00 +25°C° 0.1 mm 0 m/s 751 mmHg 88%
    06:00 +25°C° 0.1 mm 0 m/s 752 mmHg 86%
    07:00 +26°C° 0.1 mm 0 m/s 752 mmHg 85%
    08:00 +29°C° 0 mm 1 m/s 753 mmHg 79%
    09:00 +30°C° 0 mm 1 m/s 753 mmHg 73%
    10:00 +32°C° 0 mm 1 m/s 753 mmHg 68%
    11:00 +32°C° 0.1 mm 1 m/s 752 mmHg 65%
    12:00 +33°C° 0.1 mm 1 m/s 751 mmHg 62%
    13:00 +34°C° 0.1 mm 1 m/s 750 mmHg 60%
    14:00 +34°C° 2 mm 1 m/s 750 mmHg 63%
    15:00 +33°C° 2 mm 1 m/s 749 mmHg 66%
    16:00 +32°C° 2 mm 1 m/s 749 mmHg 69%
    17:00 +31°C° 1.2 mm 2 m/s 749 mmHg 74%
    18:00 +30°C° 1.2 mm 2 m/s 750 mmHg 79%
    19:00 +28°C° 1.2 mm 3 m/s 751 mmHg 84%
    20:00 +28°C° 0.6 mm 3 m/s 751 mmHg 85%
    21:00 +28°C° 0.6 mm 3 m/s 751 mmHg 86%
    22:00 +27°C° 0.6 mm 2 m/s 752 mmHg 87%
    23:00 +27°C° 0.9 mm 2 m/s 751 mmHg 87%

    Poimâine, 22 Aprilie, Luni

    Timp Temperatura Precipitaţii Vânt Presiune Umiditate
    00:00 +27°C° 0.9 mm 2 m/s 751 mmHg 87%
    01:00 +27°C° 0.9 mm 2 m/s 750 mmHg 88%
    02:00 +27°C° 0.1 mm 2 m/s 750 mmHg 87%
    03:00 +27°C° 0.1 mm 1 m/s 750 mmHg 86%
    04:00 +27°C° 0.1 mm 1 m/s 750 mmHg 86%
    05:00 +27°C° 0 mm 1 m/s 751 mmHg 84%
    06:00 +26°C° 0 mm 0 m/s 751 mmHg 83%
    07:00 +26°C° 0 mm 0 m/s 752 mmHg 81%
    08:00 +29°C° 0 mm 1 m/s 752 mmHg 77%
    09:00 +30°C° 0 mm 1 m/s 752 mmHg 72%
    10:00 +31°C° 0 mm 2 m/s 752 mmHg 68%
    11:00 +32°C° 0.1 mm 2 m/s 751 mmHg 67%
    12:00 +32°C° 0.1 mm 2 m/s 750 mmHg 66%
    13:00 +34°C° 0.1 mm 2 m/s 750 mmHg 65%
    14:00 +32°C° 0.8 mm 2 m/s 749 mmHg 68%
    15:00 +32°C° 0.8 mm 2 m/s 749 mmHg 71%
    16:00 +31°C° 0.8 mm 2 m/s 748 mmHg 74%
    17:00 +30°C° 1.6 mm 2 m/s 749 mmHg 78%
    18:00 +29°C° 1.6 mm 2 m/s 750 mmHg 83%
    19:00 +28°C° 1.6 mm 3 m/s 750 mmHg 88%
    20:00 +28°C° 0.5 mm 3 m/s 751 mmHg 88%
    21:00 +28°C° 0.5 mm 3 m/s 751 mmHg 88%
    22:00 +27°C° 0.5 mm 2 m/s 752 mmHg 89%
    23:00 +27°C° 1 mm 2 m/s 751 mmHg 89%

    23 Aprilie, Marţi

    Timp Temperatura Precipitaţii Vânt Presiune Umiditate
    00:00 +27°C° 1 mm 2 m/s 751 mmHg 90%
    01:00 +26°C° 1 mm 1 m/s 750 mmHg 91%
    02:00 +26°C° 0.9 mm 1 m/s 750 mmHg 92%
    03:00 +26°C° 0.9 mm 1 m/s 750 mmHg 92%
    04:00 +26°C° 0.9 mm 1 m/s 750 mmHg 93%
    05:00 +26°C° 0.2 mm 1 m/s 751 mmHg 91%
    06:00 +25°C° 0.2 mm 0 m/s 752 mmHg 89%
    07:00 +25°C° 0.2 mm 0 m/s 752 mmHg 87%
    08:00 +28°C° 1.3 mm 1 m/s 752 mmHg 85%
    09:00 +29°C° 1.3 mm 1 m/s 752 mmHg 83%
    10:00 +30°C° 1.3 mm 1 m/s 752 mmHg 81%
    11:00 +30°C° 1.5 mm 1 m/s 751 mmHg 81%
    12:00 +30°C° 1.5 mm 2 m/s 751 mmHg 81%
    13:00 +30°C° 1.5 mm 2 m/s 750 mmHg 81%
    14:00 +30°C° 0.5 mm 1 m/s 750 mmHg 81%
    15:00 +30°C° 0.5 mm 1 m/s 749 mmHg 80%
    16:00 +30°C° 0.5 mm 1 m/s 749 mmHg 80%
    17:00 +27°C° 0.2 mm 0 m/s 750 mmHg 82%
    18:00 +27°C° 0.2 mm 0 m/s 751 mmHg 84%
    19:00 +26°C° 0.2 mm 0 m/s 751 mmHg 86%
    20:00 +26°C° 0.5 mm 0 m/s 752 mmHg 87%
    21:00 +28°C° 0.5 mm 1 m/s 752 mmHg 88%
    22:00 +27°C° 0.5 mm 1 m/s 752 mmHg 89%
    23:00 +27°C° 1.4 mm 1 m/s 752 mmHg 90%

    24 Aprilie, Miercuri

    Timp Temperatura Precipitaţii Vânt Presiune Umiditate
    00:00 +27°C° 1.4 mm 1 m/s 751 mmHg 90%
    01:00 +27°C° 1.4 mm 1 m/s 751 mmHg 91%
    02:00 +27°C° 0.1 mm 1 m/s 751 mmHg 91%
    03:00 +26°C° 0.1 mm 1 m/s 751 mmHg 91%
    04:00 +26°C° 0.1 mm 1 m/s 751 mmHg 92%
    05:00 +27°C° 0.1 mm 1 m/s 752 mmHg 90%
    06:00 +27°C° 0.1 mm 1 m/s 752 mmHg 89%
    07:00 +27°C° 0.1 mm 1 m/s 753 mmHg 88%
    08:00 +28°C° 0.5 mm 1 m/s 753 mmHg 84%
    09:00 +29°C° 0.5 mm 2 m/s 753 mmHg 80%
    10:00 +30°C° 0.5 mm 2 m/s 753 mmHg 76%
    11:00 +30°C° 0.8 mm 2 m/s 752 mmHg 76%
    12:00 +31°C° 0.8 mm 2 m/s 751 mmHg 75%
    13:00 +31°C° 0.8 mm 3 m/s 751 mmHg 74%
    14:00 +31°C° 0 mm 3 m/s 750 mmHg 74%
    15:00 +31°C° 0 mm 2 m/s 750 mmHg 75%
    16:00 +30°C° 0 mm 2 m/s 750 mmHg 75%
    17:00 +29°C° 0 mm 2 m/s 750 mmHg 79%
    18:00 +29°C° 0 mm 1 m/s 751 mmHg 83%
    19:00 +28°C° 0 mm 1 m/s 752 mmHg 87%
    20:00 +28°C° 0.2 mm 1 m/s 752 mmHg 88%
    21:00 +27°C° 0.2 mm 1 m/s 752 mmHg 88%
    22:00 +27°C° 0.2 mm 1 m/s 753 mmHg 89%
    23:00 +27°C° 0.2 mm 1 m/s 752 mmHg 89%

    25 Aprilie, Joi

    Timp Temperatura Precipitaţii Vânt Presiune Umiditate
    00:00 +27°C° 0.2 mm 1 m/s 752 mmHg 89%
    01:00 +26°C° 0.2 mm 1 m/s 751 mmHg 89%
    02:00 +26°C° 0 mm 1 m/s 752 mmHg 89%
    03:00 +26°C° 0 mm 1 m/s 752 mmHg 88%
    04:00 +26°C° 0 mm 1 m/s 752 mmHg 88%
    05:00 +26°C° 0 mm 1 m/s 752 mmHg 86%
    06:00 +27°C° 0 mm 1 m/s 753 mmHg 85%
    07:00 +27°C° 0 mm 1 m/s 753 mmHg 83%
    08:00 +28°C° 0 mm 1 m/s 753 mmHg 78%
    09:00 +28°C° 0 mm 0 m/s 753 mmHg 73%
    10:00 +29°C° 0 mm 0 m/s 753 mmHg 69%
    11:00 +31°C° 0.4 mm 1 m/s 753 mmHg 71%
    12:00 +30°C° 0.4 mm 1 m/s 752 mmHg 73%
    13:00 +30°C° 0.4 mm 2 m/s 751 mmHg 75%
    14:00 +30°C° 0.1 mm 2 m/s 751 mmHg 75%
    15:00 +30°C° 0.1 mm 2 m/s 750 mmHg 75%
    16:00 +30°C° 0.1 mm 2 m/s 750 mmHg 75%
    17:00 +29°C° 0 mm 2 m/s 751 mmHg 77%
    18:00 +29°C° 0 mm 2 m/s 751 mmHg 79%
    19:00 +28°C° 0 mm 2 m/s 752 mmHg 80%
    20:00 +28°C° 0.1 mm 2 m/s 752 mmHg 82%
    21:00 +27°C° 0.1 mm 2 m/s 753 mmHg 83%
    22:00 +27°C° 0.1 mm 2 m/s 753 mmHg 85%
    23:00 +27°C° 0.1 mm 2 m/s 753 mmHg 86%
    Arată mai mult